Tracking 35237 objects as of 5-Sep-2026
HD Live streaming from Space Station
objects crossing your sky now

STARLINK-1928


STARLINK-1928 is no longer on orbit
STARLINK-1928 is classified as:


NORAD ID: 46758
Int'l Code: 2020-074V
Launch date: October 24, 2020
Source: United States (US)
Launch site: AIR FORCE EASTERN TEST RANGE (AFETR)
Decay date: 2026-06-25
Your satellite tracking list
Your tracking list is empty




NASA's NSSDC Master Catalog

Two Line Element Set (TLE):
1 46758U 20074V   26176.07781071  .08116360  12348-4  49748-3 0  9998
2 46758  53.0193 102.9547 0007931 247.7817 112.2389 16.41271005314211
Source of the keplerian elements: AFSPC